Tracking 25995 objects as of 19-Aug-2022
HD Live streaming from Space Station
objects crossing your sky now

THOR ABLESTAR DEB

Track THOR ABLESTAR DEB now!
10-day predictions


NORAD ID: 475
Int'l Code: 1961-015FM
Perigee: 741.4 km
Apogee: 978.2 km
Inclination: 66.2 °
Period: 102.0 minutes
Semi major axis: 7230 km
RCS: 0.0538 m2 (small)
Launch date: June 29, 1961
Source: United States (US)
Launch site: AIR FORCE EASTERN TEST RANGE (AFETR)

Note: This is SATELLITE DEBRIS
aabbcc
Your satellite tracking list
Your tracking list is empty




NASA's NSSDC Master Catalog

Two Line Element Set (TLE):
1 00475U 61015FM  22230.61554332  .00000519  00000-0  29130-3 0  9990
2 00475  66.2293  72.5813 0163743 240.3098 118.1602 14.11952527 89555
Source of the keplerian elements: AFSPC